Flag for Canada Weather past 2 weeks in Kugluktuk, Nunavut, Canada

Now
43 °F

Passing clouds.


Feels Like: 36 °F
Forecast: 40 / 54 °F
Wind: 12 mph from South

Location: Coppermine

Current Time: Sep 5, 2015 at 8:23:23 AM

Latest Report: Sep 5, 2015 at 8:00 AM


Visibility: 15 mi

Pressure: 30.11 "Hg

Humidity: 76%

Dew point: 36 °F

Location of KugluktukLocation

Historic Weather in Kugluktuk — Graph

°F

Kugluktuk temperature yesterday

Maximum temperature yesterday: 55 °F (at 6:00 PM)
Minimum temperature yesterday: 30 °F (at 6:51 AM)
Average temperature yesterday: 43 °F

Past Weeks' High & Low Weather Summary

 TemperatureHumidityPressure
High70 °F (Aug 27, 2:00 PM)100% (Aug 22, 4:00 AM)30.27 "Hg (Aug 22, 4:00 AM)
Low30 °F (Sep 4, 6:51 AM)43% (Aug 27, 2:00 PM)29.33 "Hg (Aug 31, 3:00 AM)
Average49 °F85%29.86 "Hg
* Reported Aug 21 7:00 AM — Sep 5 7:00 AM, Kugluktuk, Weather by CustomWeather, © 2015

Note: Actual official high and low records may vary slightly from our data, if they occured in-between our weather recording intervals... More about our weather records

Advertising

Kugluktuk weather history for previous 24 hours

 ConditionsComfort  
Time TempWeatherWind HumidityBarometerVisibility
7:00 AM
Sat, Sep 5
39 °FPassing clouds.7 mph81%30.12 "Hg15 mi
6:00 AM37 °FPassing clouds.9 mph87%30.12 "Hg15 mi
5:00 AM39 °FPartly cloudy.3 mph70%30.13 "Hg15 mi
4:00 AM39 °FPassing clouds.No wind70%30.13 "Hg15 mi
3:00 AM41 °FPassing clouds.12 mph70%30.13 "Hg15 mi
2:00 AM43 °FPartly cloudy.12 mph66%30.13 "Hg15 mi
1:00 AM43 °FPartly cloudy.13 mph66%30.13 "Hg15 mi
12:00 AM45 °FPartly cloudy.13 mph61%30.13 "Hg15 mi
11:00 PM
Fri, Sep 4
45 °FPartly cloudy.12 mph66%30.13 "Hg15 mi
10:00 PM45 °FScattered clouds.12 mph71%30.13 "Hg15 mi
9:00 PM46 °FScattered clouds.10 mph66%30.13 "Hg15 mi
8:00 PM50 °FPassing clouds.12 mph58%30.13 "Hg15 mi
7:00 PM54 °FPassing clouds.14 mph47%30.14 "Hg15 mi
6:00 PM55 °FPassing clouds.12 mph44%30.14 "Hg15 mi
5:00 PM54 °FPassing clouds.13 mph54%30.16 "Hg15 mi
4:00 PM54 °FPassing clouds.13 mph44%30.17 "Hg15 mi
3:00 PM54 °FPassing clouds.13 mph44%30.19 "Hg15 mi
2:00 PM54 °FPassing clouds.13 mph44%30.19 "Hg15 mi
1:00 PM52 °FScattered clouds.14 mph50%30.20 "Hg15 mi
12:00 PM48 °FScattered clouds.7 mph71%30.22 "Hg15 mi
11:00 AM43 °FPassing clouds.6 mph76%30.24 "Hg15 mi
10:00 AM39 °FFog.2 mph87%30.24 "Hg15 mi
9:00 AM34 °FFog.5 mph100%30.25 "Hg3 mi
8:00 AM30 °FIce fog.7 mph100%30.25 "Hg1 mi
Weather by CustomWeather, © 2015

See weather overviewHow to use our weather pages